| time (UTC) | temp C | wind direction | speed KPH | gust KPH | rain 1hr cm | rain 24hr cm | rain mn cm | humidity % | barometer mb |
| 20260906135042 | 26 | 144 | 0.0 | 3.2 | 0.00 | 0.00 | 0.00 | 83 | 1013.8 |
| 20260906134510 | 26 | 144 | 0.0 | 3.2 | 0.00 | 0.00 | 0.00 | 83 | 1013.8 |
| 20260906134050 | 26 | 144 | 0.0 | 3.2 | 0.00 | 0.00 | 0.00 | 83 | 1013.7 |
| 20260906133528 | 26 | 144 | 0.0 | 1.6 | 0.00 | 0.00 | 0.00 | 83 | 1013.7 |
| 20260906133059 | 26 | 144 | 0.0 | 0.0 | 0.00 | 0.00 | 0.00 | 84 | 1013.7 |
| 20260906132535 | 26 | 144 | 0.0 | 0.0 | 0.00 | 0.00 | 0.00 | 84 | 1013.6 |
| 20260906132012 | 26 | 144 | 0.0 | 0.0 | 0.00 | 0.00 | 0.00 | 85 | 1013.5 |
| 20260906131544 | 25 | 144 | 0.0 | 0.0 | 0.00 | 0.00 | 0.00 | 85 | 1013.4 |
| 20260906131020 | 25 | 144 | 0.0 | 0.0 | 0.00 | 0.00 | 0.00 | 86 | 1013.3 |
| 20260906130601 | 25 | 144 | 0.0 | 0.0 | 0.00 | 0.00 | 0.00 | 86 | 1013.2 |
| 20260906130029 | 25 | 144 | 0.0 | 0.0 | 0.00 | 0.00 | 0.00 | 87 | 1013.2 |
| 20260906125506 | 25 | 144 | 0.0 | 0.0 | 0.00 | 0.00 | 0.00 | 87 | 1013.2 |
| 20260906125046 | 25 | 144 | 0.0 | 0.0 | 0.00 | 0.00 | 0.00 | 88 | 1013.1 |
| 20260906124514 | 25 | 144 | 0.0 | 0.0 | 0.00 | 0.00 | 0.00 | 88 | 1013.0 |
| 20260906124056 | 25 | 144 | 0.0 | 0.0 | 0.00 | 0.00 | 0.00 | 88 | 1012.9 |
| 20260906123532 | 24 | 144 | 0.0 | 0.0 | 0.00 | 0.00 | 0.00 | 88 | 1012.9 |
| 20260906123105 | 24 | 144 | 0.0 | 0.0 | 0.00 | 0.00 | 0.00 | 88 | 1012.9 |
| 20260906122541 | 24 | 144 | 0.0 | 0.0 | 0.00 | 0.00 | 0.00 | 88 | 1012.7 |
| 20260906122019 | 24 | 144 | 0.0 | 0.0 | 0.00 | 0.00 | 0.00 | 88 | 1012.7 |
| 20260906121602 | 24 | 144 | 0.0 | 0.0 | 0.00 | 0.00 | 0.00 | 87 | 1012.6 |
| 20260906121026 | 24 | 144 | 0.0 | 0.0 | 0.00 | 0.00 | 0.00 | 87 | 1012.5 |
| 20260906120505 | 24 | 144 | 0.0 | 0.0 | 0.00 | 0.00 | 0.00 | 87 | 1012.3 |
| 20260906120035 | 24 | 144 | 0.0 | 0.0 | 0.00 | 0.00 | 0.00 | 87 | 1012.3 |
| 20260906115512 | 24 | 144 | 0.0 | 0.0 | 0.00 | 0.00 | 0.00 | 87 | 1012.2 |
| 20260906115053 | 24 | 144 | 0.0 | 0.0 | 0.00 | 0.00 | 0.00 | 86 | 1012.1 |
| 20260906114522 | 25 | 144 | 0.0 | 0.0 | 0.00 | 0.00 | 0.00 | 86 | 1012.0 |
| 20260906114102 | 25 | 144 | 0.0 | 0.0 | 0.00 | 0.00 | 0.00 | 86 | 1012.0 |
| 20260906113538 | 25 | 144 | 0.0 | 0.0 | 0.00 | 0.00 | 0.00 | 85 | 1012.0 |
| 20260906113006 | 25 | 144 | 0.0 | 0.0 | 0.00 | 0.00 | 0.00 | 85 | 1012.0 |
| 20260906112547 | 25 | 144 | 0.0 | 0.0 | 0.00 | 0.00 | 0.00 | 85 | 1012.0 |
| 20260906112024 | 25 | 144 | 0.0 | 0.0 | 0.00 | 0.00 | 0.00 | 84 | 1012.0 |
| 20260906111556 | 25 | 144 | 0.0 | 0.0 | 0.00 | 0.00 | 0.00 | 84 | 1012.0 |
| 20260906111033 | 25 | 144 | 0.0 | 0.0 | 0.00 | 0.00 | 0.00 | 83 | 1011.9 |
| 20260906110510 | 25 | 144 | 0.0 | 0.0 | 0.00 | 0.00 | 0.00 | 83 | 1011.8 |
| 20260906110042 | 25 | 144 | 0.0 | 0.0 | 0.00 | 0.00 | 0.00 | 83 | 1011.8 |
| 20260906105518 | 25 | 144 | 0.0 | 0.0 | 0.00 | 0.00 | 0.00 | 82 | 1011.8 |
| 20260906105059 | 26 | 144 | 0.0 | 0.0 | 0.00 | 0.00 | 0.00 | 82 | 1011.8 |
| 20260906104528 | 26 | 144 | 0.0 | 0.0 | 0.00 | 0.00 | 0.00 | 81 | 1011.8 |
| 20260906104005 | 26 | 144 | 0.0 | 0.0 | 0.00 | 0.00 | 0.00 | 81 | 1011.7 |
| 20260906103547 | 26 | 144 | 0.0 | 0.0 | 0.00 | 0.00 | 0.00 | 81 | 1011.7 |
| 20260906103035 | 26 | 144 | 0.0 | 0.0 | 0.00 | 0.00 | 0.00 | 81 | 1011.7 |
| 20260906102555 | 26 | 144 | 0.0 | 0.0 | 0.00 | 0.00 | 0.00 | 80 | 1011.7 |
| 20260906102032 | 26 | 144 | 0.0 | 0.0 | 0.00 | 0.00 | 0.00 | 80 | 1011.7 |
| 20260906101502 | 26 | 144 | 0.0 | 0.0 | 0.00 | 0.00 | 0.00 | 80 | 1011.5 |
| 20260906101042 | 26 | 144 | 0.0 | 0.0 | 0.00 | 0.00 | 0.00 | 79 | 1011.5 |
| 20260906100519 | 26 | 144 | 0.0 | 0.0 | 0.00 | 0.00 | 0.00 | 79 | 1011.5 |
| 20260906100052 | 26 | 144 | 0.0 | 0.0 | 0.00 | 0.00 | 0.00 | 78 | 1011.5 |
| 20260906095529 | 26 | 144 | 0.0 | 0.0 | 0.00 | 0.00 | 0.00 | 78 | 1011.6 |
| 20260906095006 | 26 | 144 | 0.0 | 0.0 | 0.00 | 0.00 | 0.00 | 78 | 1011.6 |
| 20260906094539 | 27 | 144 | 0.0 | 0.0 | 0.00 | 0.00 | 0.00 | 78 | 1011.6 |
| 20260906094015 | 27 | 144 | 0.0 | 0.0 | 0.00 | 0.00 | 0.00 | 77 | 1011.5 |
| 20260906093558 | 27 | 144 | 0.0 | 0.0 | 0.00 | 0.00 | 0.00 | 77 | 1011.4 |
| 20260906093025 | 27 | 144 | 0.0 | 0.0 | 0.00 | 0.00 | 0.00 | 77 | 1011.4 |
| 20260906092502 | 27 | 144 | 0.0 | 0.0 | 0.00 | 0.00 | 0.00 | 76 | 1011.4 |
| 20260906092043 | 27 | 144 | 0.0 | 3.2 | 0.00 | 0.00 | 0.00 | 77 | 1011.5 |
| 20260906091511 | 27 | 144 | 0.0 | 4.8 | 0.00 | 0.00 | 0.00 | 77 | 1011.4 |
| 20260906091053 | 27 | 144 | 0.0 | 4.8 | 0.00 | 0.00 | 0.00 | 76 | 1011.4 |
| 20260906090530 | 27 | 144 | 1.6 | 11.3 | 0.00 | 0.00 | 0.00 | 76 | 1011.4 |
| 20260906090103 | 27 | 144 | 3.2 | 11.3 | 0.00 | 0.00 | 0.00 | 76 | 1011.4 |
| 20260906085540 | 27 | 144 | 1.6 | 4.8 | 0.00 | 0.00 | 0.00 | 76 | 1011.5 |
| 20260906085015 | 27 | 144 | 1.6 | 4.8 | 0.00 | 0.00 | 0.00 | 76 | 1011.5 |
| 20260906084549 | 27 | 144 | 1.6 | 4.8 | 0.00 | 0.00 | 0.00 | 76 | 1011.4 |
| 20260906084026 | 27 | 144 | 1.6 | 6.4 | 0.00 | 0.00 | 0.00 | 76 | 1011.5 |
| 20260906083503 | 27 | 144 | 1.6 | 4.8 | 0.00 | 0.00 | 0.00 | 75 | 1011.4 |
| 20260906083036 | 27 | 144 | 1.6 | 6.4 | 0.00 | 0.00 | 0.00 | 75 | 1011.5 |
| 20260906082516 | 27 | 144 | 1.6 | 6.4 | 0.00 | 0.00 | 0.00 | 75 | 1011.5 |
| 20260906082054 | 27 | 144 | 0.0 | 4.8 | 0.00 | 0.00 | 0.00 | 75 | 1011.4 |
| 20260906081525 | 28 | 144 | 0.0 | 8.0 | 0.00 | 0.00 | 0.00 | 75 | 1011.5 |
| 20260906081107 | 28 | 144 | 3.2 | 8.0 | 0.00 | 0.00 | 0.00 | 75 | 1011.5 |
| 20260906080541 | 28 | 144 | 3.2 | 8.0 | 0.00 | 0.00 | 0.00 | 75 | 1011.6 |
| 20260906080010 | 28 | 144 | 3.2 | 8.0 | 0.00 | 0.00 | 0.00 | 75 | 1011.6 |
| 20260906075552 | 28 | 146 | 3.2 | 8.0 | 0.00 | 0.00 | 0.00 | 75 | 1011.6 |
| 20260906075027 | 28 | 163 | 1.6 | 9.7 | 0.00 | 0.00 | 0.00 | 75 | 1011.7 |
| 20260906074601 | 28 | 148 | 1.6 | 9.7 | 0.00 | 0.00 | 0.00 | 75 | 1011.8 |
| 20260906074037 | 28 | 152 | 0.0 | 4.8 | 0.00 | 0.00 | 0.00 | 75 | 1011.8 |
| 20260906073518 | 28 | 152 | 1.6 | 8.0 | 0.00 | 0.00 | 0.00 | 75 | 1011.9 |
| 20260906073048 | 28 | 152 | 1.6 | 8.0 | 0.00 | 0.00 | 0.00 | 76 | 1011.9 |
| 20260906072526 | 28 | 152 | 1.6 | 8.0 | 0.00 | 0.00 | 0.00 | 76 | 1012.0 |
| 20260906072105 | 28 | 152 | 0.0 | 4.8 | 0.00 | 0.00 | 0.00 | 76 | 1012.1 |
| 20260906071532 | 27 | 152 | 0.0 | 8.0 | 0.00 | 0.00 | 0.00 | 76 | 1012.1 |
| 20260906071009 | 27 | 152 | 0.0 | 4.8 | 0.00 | 0.00 | 0.00 | 76 | 1012.1 |
| 20260906070552 | 27 | 152 | 0.0 | 9.7 | 0.00 | 0.00 | 0.00 | 76 | 1012.2 |
| 20260906070020 | 27 | 153 | 1.6 | 8.0 | 0.00 | 0.00 | 0.00 | 76 | 1012.3 |
| 20260906065601 | 27 | 153 | 0.0 | 4.8 | 0.00 | 0.00 | 0.00 | 76 | 1012.3 |
| 20260906065038 | 27 | 153 | 0.0 | 4.8 | 0.00 | 0.00 | 0.00 | 76 | 1012.3 |
| 20260906064507 | 27 | 153 | 0.0 | 1.6 | 0.00 | 0.00 | 0.00 | 76 | 1012.4 |
| 20260906064045 | 27 | 153 | 0.0 | 1.6 | 0.00 | 0.00 | 0.00 | 76 | 1012.4 |
| 20260906063522 | 27 | 153 | 0.0 | 0.0 | 0.00 | 0.00 | 0.00 | 76 | 1012.5 |
| 20260906063057 | 27 | 153 | 0.0 | 8.0 | 0.00 | 0.00 | 0.00 | 76 | 1012.5 |
| 20260906062533 | 27 | 153 | 1.6 | 8.0 | 0.00 | 0.00 | 0.00 | 76 | 1012.5 |
| 20260906062012 | 27 | 153 | 0.0 | 3.2 | 0.00 | 0.00 | 0.00 | 76 | 1012.4 |
| 20260906061547 | 27 | 153 | 0.0 | 8.0 | 0.00 | 0.00 | 0.00 | 76 | 1012.4 |
| 20260906061022 | 27 | 153 | 0.0 | 8.0 | 0.00 | 0.00 | 0.00 | 76 | 1012.4 |
| 20260906060604 | 27 | 153 | 1.6 | 4.8 | 0.00 | 0.00 | 0.00 | 76 | 1012.4 |
| 20260906060034 | 27 | 153 | 1.6 | 4.8 | 0.00 | 0.00 | 0.00 | 76 | 1012.4 |
| 20260906055513 | 27 | 153 | 1.6 | 4.8 | 0.00 | 0.00 | 0.00 | 75 | 1012.6 |
| 20260906055052 | 28 | 153 | 1.6 | 4.8 | 0.00 | 0.00 | 0.00 | 75 | 1012.7 |
| 20260906054533 | 28 | 153 | 0.0 | 4.8 | 0.00 | 0.00 | 0.00 | 75 | 1012.7 |
| 20260906054104 | 28 | 153 | 0.0 | 8.0 | 0.00 | 0.00 | 0.00 | 75 | 1012.5 |
| 20260906053542 | 28 | 153 | 3.2 | 8.0 | 0.00 | 0.00 | 0.00 | 75 | 1012.5 |
| 20260906053012 | 28 | 153 | 1.6 | 8.0 | 0.00 | 0.00 | 0.00 | 74 | 1012.5 |
| 20260906052556 | 28 | 153 | 0.0 | 8.0 | 0.00 | 0.00 | 0.00 | 74 | 1012.5 |
| 20260906052030 | 28 | 153 | 3.2 | 6.4 | 0.00 | 0.00 | 0.00 | 74 | 1012.6 |
| 20260906051609 | 28 | 153 | 1.6 | 8.0 | 0.00 | 0.00 | 0.00 | 74 | 1012.6 |
| 20260906051041 | 28 | 153 | 3.2 | 9.7 | 0.00 | 0.00 | 0.00 | 74 | 1012.7 |
| 20260906050521 | 28 | 153 | 4.8 | 9.7 | 0.00 | 0.00 | 0.00 | 74 | 1012.7 |
| 20260906050052 | 28 | 144 | 3.2 | 8.0 | 0.00 | 0.00 | 0.00 | 74 | 1012.7 |
| 20260906045531 | 28 | 178 | 1.6 | 9.7 | 0.00 | 0.00 | 0.00 | 73 | 1012.9 |
| 20260906045005 | 28 | 178 | 3.2 | 9.7 | 0.00 | 0.00 | 0.00 | 73 | 1013.0 |
| 20260906044543 | 28 | 148 | 3.2 | 9.7 | 0.00 | 0.00 | 0.00 | 72 | 1012.9 |
| 20260906044017 | 28 | 155 | 3.2 | 9.7 | 0.00 | 0.00 | 0.00 | 72 | 1012.8 |
| 20260906043602 | 28 | 148 | 1.6 | 9.7 | 0.00 | 0.00 | 0.00 | 72 | 1012.7 |
| 20260906043029 | 28 | 142 | 3.2 | 8.0 | 0.00 | 0.00 | 0.00 | 72 | 1012.7 |
| 20260906042508 | 28 | 143 | 4.8 | 6.4 | 0.00 | 0.00 | 0.00 | 71 | 1012.6 |
| 20260906042047 | 28 | 143 | 1.6 | 6.4 | 0.00 | 0.00 | 0.00 | 70 | 1012.6 |
| 20260906041517 | 28 | 143 | 1.6 | 6.4 | 0.00 | 0.00 | 0.00 | 70 | 1012.6 |
| 20260906041058 | 28 | 143 | 1.6 | 6.4 | 0.00 | 0.00 | 0.00 | 69 | 1012.6 |
| 20260906040535 | 28 | 143 | 1.6 | 6.4 | 0.00 | 0.00 | 0.00 | 69 | 1012.5 |
| 20260906040006 | 28 | 143 | 3.2 | 8.0 | 0.00 | 0.00 | 0.00 | 68 | 1012.5 |
| 20260906035546 | 28 | 143 | 1.6 | 16.1 | 0.00 | 0.00 | 0.00 | 68 | 1012.5 |
| 20260906035024 | 29 | 129 | 6.4 | 16.1 | 0.00 | 0.00 | 0.00 | 68 | 1012.5 |
| 20260906034605 | 29 | 139 | 1.6 | 12.9 | 0.00 | 0.00 | 0.00 | 67 | 1012.5 |
| 20260906034034 | 29 | 140 | 3.2 | 12.9 | 0.00 | 0.00 | 0.00 | 67 | 1012.5 |
| 20260906033511 | 29 | 119 | 4.8 | 11.3 | 0.00 | 0.00 | 0.00 | 66 | 1012.5 |
| 20260906033048 | 29 | 118 | 1.6 | 11.3 | 0.00 | 0.00 | 0.00 | 66 | 1012.5 |
| 20260906032526 | 29 | 112 | 1.6 | 11.3 | 0.00 | 0.00 | 0.00 | 66 | 1012.6 |
| 20260906032105 | 29 | 133 | 3.2 | 8.0 | 0.00 | 0.00 | 0.00 | 65 | 1012.5 |
| 20260906031535 | 30 | 93 | 1.6 | 8.0 | 0.00 | 0.00 | 0.00 | 65 | 1012.6 |
| 20260906031015 | 30 | 134 | 3.2 | 11.3 | 0.00 | 0.00 | 0.00 | 65 | 1012.5 |
| 20260906030555 | 30 | 138 | 3.2 | 11.3 | 0.00 | 0.00 | 0.00 | 63 | 1012.4 |
| 20260906030028 | 30 | 126 | 4.8 | 12.9 | 0.00 | 0.00 | 0.00 | 63 | 1012.3 |
| 20260906025506 | 30 | 144 | 3.2 | 11.3 | 0.00 | 0.00 | 0.00 | 62 | 1012.1 |
| 20260906025049 | 30 | 71 | 3.2 | 8.0 | 0.00 | 0.00 | 0.00 | 61 | 1012.0 |
| 20260906024520 | 30 | 100 | 3.2 | 11.3 | 0.00 | 0.00 | 0.00 | 60 | 1012.0 |
| 20260906024104 | 30 | 110 | 3.2 | 11.3 | 0.00 | 0.00 | 0.00 | 60 | 1011.9 |
| 20260906023542 | 30 | 90 | 3.2 | 11.3 | 0.00 | 0.00 | 0.00 | 59 | 1011.8 |
| 20260906023015 | 30 | 105 | 1.6 | 11.3 | 0.00 | 0.00 | 0.00 | 58 | 1011.7 |
| 20260906022556 | 30 | 80 | 1.6 | 11.3 | 0.00 | 0.00 | 0.00 | 57 | 1011.5 |
| 20260906022037 | 31 | 124 | 3.2 | 14.5 | 0.00 | 0.00 | 0.00 | 57 | 1011.3 |
| 20260906021512 | 31 | 88 | 3.2 | 14.5 | 0.00 | 0.00 | 0.00 | 57 | 1011.3 |
| 20260906021049 | 31 | 86 | 0.0 | 9.7 | 0.00 | 0.00 | 0.00 | 56 | 1011.3 |
| 20260906020528 | 31 | 77 | 1.6 | 11.3 | 0.00 | 0.00 | 0.00 | 56 | 1011.1 |
| 20260906020103 | 31 | 92 | 0.0 | 14.5 | 0.00 | 0.00 | 0.00 | 56 | 1011.0 |
| 20260906015541 | 31 | 118 | 3.2 | 14.5 | 0.00 | 0.00 | 0.00 | 55 | 1010.9 |
| 20260906015021 | 31 | 136 | 4.8 | 14.5 | 0.00 | 0.00 | 0.00 | 55 | 1010.7 |
| 20260906014605 | 31 | 119 | 3.2 | 12.9 | 0.00 | 0.00 | 0.00 | 55 | 1010.7 |
| 20260906014034 | 31 | 134 | 4.8 | 14.5 | 0.00 | 0.00 | 0.00 | 55 | 1010.7 |
| 20260906013513 | 32 | 126 | 3.2 | 14.5 | 0.00 | 0.00 | 0.00 | 54 | 1010.7 |
| 20260906013053 | 32 | 99 | 4.8 | 16.1 | 0.00 | 0.00 | 0.00 | 54 | 1010.6 |
| 20260906012528 | 32 | 78 | 4.8 | 16.1 | 0.00 | 0.00 | 0.00 | 53 | 1010.6 |
| 20260906012006 | 32 | 130 | 4.8 | 16.1 | 0.00 | 0.00 | 0.00 | 53 | 1010.5 |
| 20260906011543 | 32 | 123 | 4.8 | 14.5 | 0.00 | 0.00 | 0.00 | 53 | 1010.4 |
| 20260906011020 | 32 | 94 | 4.8 | 12.9 | 0.00 | 0.00 | 0.00 | 53 | 1010.4 |
| 20260906010603 | 33 | 130 | 4.8 | 14.5 | 0.00 | 0.00 | 0.00 | 52 | 1010.4 |
| 20260906010037 | 33 | 137 | 4.8 | 14.5 | 0.00 | 0.00 | 0.00 | 52 | 1010.4 |
| 20260906005515 | 33 | 61 | 6.4 | 14.5 | 0.00 | 0.00 | 0.00 | 51 | 1010.4 |
| 20260906005102 | 33 | 140 | 3.2 | 14.5 | 0.00 | 0.00 | 0.00 | 51 | 1010.5 |
| 20260906004530 | 33 | 107 | 3.2 | 9.7 | 0.00 | 0.00 | 0.00 | 50 | 1010.4 |
| 20260906004009 | 33 | 95 | 3.2 | 16.1 | 0.00 | 0.00 | 0.00 | 50 | 1010.4 |
| 20260906003551 | 34 | 70 | 6.4 | 17.7 | 0.00 | 0.00 | 0.00 | 50 | 1010.4 |
| 20260906003024 | 34 | 87 | 3.2 | 14.5 | 0.00 | 0.00 | 0.00 | 49 | 1010.4 |
| 20260906002502 | 34 | 121 | 6.4 | 14.5 | 0.00 | 0.00 | 0.00 | 48 | 1010.3 |
| 20260906002043 | 35 | 121 | 6.4 | 14.5 | 0.00 | 0.00 | 0.00 | 47 | 1010.3 |
| 20260906001515 | 35 | 90 | 6.4 | 14.5 | 0.00 | 0.00 | 0.00 | 46 | 1010.3 |
| 20260906001056 | 35 | 109 | 6.4 | 14.5 | 0.00 | 0.00 | 0.00 | 46 | 1010.2 |
| 20260906000532 | 35 | 71 | 1.6 | 14.5 | 0.00 | 0.00 | 0.00 | 47 | 1010.2 |
| 20260906000004 | 35 | 96 | 4.8 | 16.1 | 0.00 | 0.00 | 0.00 | 46 | 1010.2 |
| 20260905235544 | 35 | 71 | 3.2 | 20.9 | 0.00 | 0.00 | 0.00 | 46 | 1010.2 |
| 20260905235021 | 36 | 57 | 8.0 | 20.9 | 0.00 | 0.00 | 0.00 | 45 | 1010.1 |
| 20260905234557 | 36 | 88 | 6.4 | 19.3 | 0.00 | 0.00 | 0.00 | 45 | 1010.0 |
| 20260905234034 | 36 | 74 | 4.8 | 17.7 | 0.00 | 0.00 | 0.00 | 42 | 1010.0 |
| 20260905233510 | 36 | 125 | 6.4 | 14.5 | 0.00 | 0.00 | 0.00 | 39 | 1009.9 |
| 20260905233048 | 36 | 105 | 1.6 | 12.9 | 0.00 | 0.00 | 0.00 | 40 | 1009.9 |
| 20260905232526 | 36 | 142 | 3.2 | 11.3 | 0.00 | 0.00 | 0.00 | 39 | 1010.0 |
| 20260905232003 | 36 | 138 | 4.8 | 11.3 | 0.00 | 0.00 | 0.00 | 40 | 1010.0 |
| 20260905231540 | 36 | 139 | 3.2 | 12.9 | 0.00 | 0.00 | 0.00 | 39 | 1009.9 |
| 20260905231016 | 36 | 149 | 4.8 | 12.9 | 0.00 | 0.00 | 0.00 | 40 | 1009.9 |
| 20260905230557 | 36 | 148 | 1.6 | 11.3 | 0.00 | 0.00 | 0.00 | 40 | 1009.9 |
| 20260905230030 | 36 | 82 | 3.2 | 12.9 | 0.00 | 0.00 | 0.00 | 39 | 1009.9 |
| 20260905225506 | 37 | 151 | 4.8 | 12.9 | 0.00 | 0.00 | 0.00 | 38 | 1009.9 |
| 20260905225047 | 37 | 150 | 3.2 | 16.1 | 0.00 | 0.00 | 0.00 | 38 | 1010.0 |
| 20260905224527 | 37 | 64 | 1.6 | 16.1 | 0.00 | 0.00 | 0.00 | 40 | 1010.0 |
| 20260905224104 | 37 | 107 | 4.8 | 16.1 | 0.00 | 0.00 | 0.00 | 39 | 1009.9 |
| 20260905223536 | 37 | 111 | 3.2 | 14.5 | 0.00 | 0.00 | 0.00 | 39 | 1009.9 |
| 20260905223009 | 37 | 136 | 4.8 | 14.5 | 0.00 | 0.00 | 0.00 | 39 | 1010.0 |
| 20260905222551 | 37 | 154 | 3.2 | 11.3 | 0.00 | 0.00 | 0.00 | 38 | 1010.0 |
| 20260905222026 | 37 | 207 | 0.0 | 11.3 | 0.00 | 0.00 | 0.00 | 39 | 1010.0 |
| 20260905221605 | 37 | 123 | 1.6 | 14.5 | 0.00 | 0.00 | 0.00 | 39 | 1010.0 |
| 20260905221041 | 37 | 148 | 4.8 | 14.5 | 0.00 | 0.00 | 0.00 | 38 | 1010.1 |
| 20260905220517 | 36 | 112 | 3.2 | 12.9 | 0.00 | 0.00 | 0.00 | 38 | 1010.1 |
| 20260905220055 | 37 | 138 | 4.8 | 14.5 | 0.00 | 0.00 | 0.00 | 39 | 1010.1 |
| 20260905215531 | 37 | 159 | 3.2 | 14.5 | 0.00 | 0.00 | 0.00 | 38 | 1010.1 |
| 20260905215007 | 37 | 121 | 1.6 | 12.9 | 0.00 | 0.00 | 0.00 | 40 | 1010.1 |
| 20260905214544 | 37 | 134 | 1.6 | 6.4 | 0.00 | 0.00 | 0.00 | 38 | 1010.2 |
| 20260905214027 | 37 | 136 | 0.0 | 11.3 | 0.00 | 0.00 | 0.00 | 39 | 1010.2 |
| 20260905213602 | 37 | 136 | 4.8 | 11.3 | 0.00 | 0.00 | 0.00 | 38 | 1010.3 |
| 20260905213035 | 37 | 153 | 0.0 | 12.9 | 0.00 | 0.00 | 0.00 | 39 | 1010.3 |
| 20260905212512 | 37 | 117 | 3.2 | 9.7 | 0.00 | 0.00 | 0.00 | 39 | 1010.3 |
| 20260905212052 | 37 | 117 | 1.6 | 9.7 | 0.00 | 0.00 | 0.00 | 39 | 1010.5 |
| 20260905211525 | 37 | 104 | 1.6 | 12.9 | 0.00 | 0.00 | 0.00 | 38 | 1010.5 |
| 20260905211002 | 37 | 79 | 1.6 | 9.7 | 0.00 | 0.00 | 0.00 | 40 | 1010.7 |
| 20260905210544 | 37 | 87 | 1.6 | 9.7 | 0.00 | 0.00 | 0.00 | 42 | 1010.7 |
| 20260905210016 | 37 | 122 | 0.0 | 8.0 | 0.00 | 0.00 | 0.00 | 40 | 1010.7 |
| 20260905205557 | 36 | 122 | 1.6 | 12.9 | 0.00 | 0.00 | 0.00 | 40 | 1010.8 |
| 20260905205034 | 36 | 127 | 1.6 | 14.5 | 0.00 | 0.00 | 0.00 | 40 | 1010.9 |
| 20260905204509 | 36 | 141 | 6.4 | 14.5 | 0.00 | 0.00 | 0.00 | 41 | 1011.0 |
| 20260905204047 | 36 | 261 | 3.2 | 16.1 | 0.00 | 0.00 | 0.00 | 40 | 1011.1 |
| 20260905203524 | 36 | 74 | 1.6 | 8.0 | 0.00 | 0.00 | 0.00 | 42 | 1011.1 |
| 20260905203106 | 36 | 70 | 3.2 | 12.9 | 0.00 | 0.00 | 0.00 | 45 | 1011.1 |
| 20260905202538 | 36 | 153 | 1.6 | 12.9 | 0.00 | 0.00 | 0.00 | 41 | 1011.2 |
| 20260905202015 | 36 | 75 | 4.8 | 12.9 | 0.00 | 0.00 | 0.00 | 43 | 1011.2 |
| 20260905201553 | 36 | 67 | 0.0 | 8.0 | 0.00 | 0.00 | 0.00 | 44 | 1011.2 |
| 20260905201028 | 36 | 144 | 1.6 | 12.9 | 0.00 | 0.00 | 0.00 | 42 | 1011.3 |
| 20260905200506 | 36 | 194 | 0.0 | 12.9 | 0.00 | 0.00 | 0.00 | 43 | 1011.5 |
| 20260905200048 | 36 | 74 | 3.2 | 14.5 | 0.00 | 0.00 | 0.00 | 42 | 1011.6 |
| 20260905195520 | 36 | 125 | 4.8 | 19.3 | 0.00 | 0.00 | 0.00 | 43 | 1011.7 |
| 20260905195101 | 36 | 176 | 3.2 | 19.3 | 0.00 | 0.00 | 0.00 | 41 | 1011.8 |
| 20260905194540 | 36 | 132 | 6.4 | 14.5 | 0.00 | 0.00 | 0.00 | 40 | 1011.8 |
| 20260905194014 | 36 | 261 | 3.2 | 11.3 | 0.00 | 0.00 | 0.00 | 41 | 1011.9 |
| 20260905193553 | 36 | 187 | 1.6 | 8.0 | 0.00 | 0.00 | 0.00 | 43 | 1012.0 |
| 20260905193030 | 35 | 196 | 1.6 | 16.1 | 0.00 | 0.00 | 0.00 | 44 | 1012.1 |
| 20260905192506 | 36 | 96 | 8.0 | 16.1 | 0.00 | 0.00 | 0.00 | 44 | 1012.2 |
| 20260905192047 | 35 | 170 | 1.6 | 12.9 | 0.00 | 0.00 | 0.00 | 46 | 1012.2 |
| 20260905191526 | 35 | 167 | 3.2 | 12.9 | 0.00 | 0.00 | 0.00 | 46 | 1012.3 |
| 20260905191106 | 35 | 265 | 3.2 | 6.4 | 0.00 | 0.00 | 0.00 | 46 | 1012.4 |
| 20260905190539 | 35 | 209 | 0.0 | 14.5 | 0.00 | 0.00 | 0.00 | 47 | 1012.5 |
| 20260905190014 | 35 | 133 | 6.4 | 14.5 | 0.00 | 0.00 | 0.00 | 45 | 1012.7 |
| 20260905185558 | 35 | 178 | 8.0 | 16.1 | 0.00 | 0.00 | 0.00 | 45 | 1012.7 |
| 20260905185030 | 35 | 252 | 1.6 | 14.5 | 0.00 | 0.00 | 0.00 | 48 | 1012.9 |
| 20260905184516 | 35 | 130 | 4.8 | 17.7 | 0.00 | 0.00 | 0.00 | 48 | 1013.0 |
| 20260905184046 | 35 | 136 | 6.4 | 17.7 | 0.00 | 0.00 | 0.00 | 49 | 1013.1 |
| 20260905183525 | 34 | 88 | 4.8 | 12.9 | 0.00 | 0.00 | 0.00 | 49 | 1013.1 |
| 20260905183118 | 34 | 32 | 4.8 | 9.7 | 0.00 | 0.00 | 0.00 | 50 | 1013.1 |
| 20260905182539 | 34 | 211 | 1.6 | 6.4 | 0.00 | 0.00 | 0.00 | 47 | 1013.1 |
| 20260905182015 | 34 | 143 | 1.6 | 12.9 | 0.00 | 0.00 | 0.00 | 48 | 1013.3 |
| 20260905181554 | 34 | 188 | 3.2 | 12.9 | 0.00 | 0.00 | 0.00 | 50 | 1013.3 |
| 20260905181031 | 33 | 140 | 3.2 | 8.0 | 0.00 | 0.00 | 0.00 | 51 | 1013.5 |
| 20260905180508 | 33 | 119 | 3.2 | 17.7 | 0.00 | 0.00 | 0.00 | 53 | 1013.5 |
| 20260905180047 | 33 | 155 | 8.0 | 17.7 | 0.00 | 0.00 | 0.00 | 50 | 1013.7 |
| 20260905175523 | 33 | 157 | 6.4 | 17.7 | 0.00 | 0.00 | 0.00 | 48 | 1013.8 |
| 20260905175001 | 33 | 132 | 3.2 | 16.1 | 0.00 | 0.00 | 0.00 | 51 | 1013.8 |
| 20260905174541 | 33 | 167 | 6.4 | 16.1 | 0.00 | 0.00 | 0.00 | 50 | 1014.0 |
| 20260905174016 | 33 | 146 | 3.2 | 16.1 | 0.00 | 0.00 | 0.00 | 50 | 1014.0 |
| 20260905173557 | 33 | 131 | 8.0 | 14.5 | 0.00 | 0.00 | 0.00 | 51 | 1014.0 |
| 20260905173031 | 33 | 217 | 1.6 | 11.3 | 0.00 | 0.00 | 0.00 | 54 | 1014.0 |
| 20260905172508 | 33 | 162 | 1.6 | 16.1 | 0.00 | 0.00 | 0.00 | 56 | 1014.1 |
| 20260905172050 | 32 | 186 | 6.4 | 16.1 | 0.00 | 0.00 | 0.00 | 56 | 1014.2 |
| 20260905171527 | 32 | 228 | 0.0 | 12.9 | 0.00 | 0.00 | 0.00 | 55 | 1014.2 |
| 20260905171106 | 32 | 171 | 3.2 | 12.9 | 0.00 | 0.00 | 0.00 | 56 | 1014.3 |
| 20260905170542 | 32 | 136 | 4.8 | 11.3 | 0.00 | 0.00 | 0.00 | 58 | 1014.3 |
| 20260905170017 | 32 | 145 | 6.4 | 16.1 | 0.00 | 0.00 | 0.00 | 58 | 1014.4 |
| 20260905165602 | 32 | 161 | 8.0 | 16.1 | 0.00 | 0.00 | 0.00 | 57 | 1014.5 |
| 20260905165037 | 32 | 189 | 0.0 | 14.5 | 0.00 | 0.00 | 0.00 | 58 | 1014.4 |
| 20260905164511 | 31 | 173 | 4.8 | 14.5 | 0.00 | 0.00 | 0.00 | 61 | 1014.5 |
| 20260905164054 | 31 | 172 | 1.6 | 12.9 | 0.00 | 0.00 | 0.00 | 58 | 1014.5 |
| 20260905163532 | 31 | 225 | 4.8 | 12.9 | 0.00 | 0.00 | 0.00 | 59 | 1014.5 |
| 20260905163009 | 31 | 163 | 3.2 | 14.5 | 0.00 | 0.00 | 0.00 | 59 | 1014.6 |
| 20260905162554 | 31 | 248 | 3.2 | 14.5 | 0.00 | 0.00 | 0.00 | 60 | 1014.5 |
| 20260905162031 | 31 | 153 | 6.4 | 16.1 | 0.00 | 0.00 | 0.00 | 61 | 1014.5 |
| 20260905161518 | 31 | 200 | 6.4 | 16.1 | 0.00 | 0.00 | 0.00 | 62 | 1014.6 |
| 20260905161059 | 31 | 123 | 3.2 | 14.5 | 0.00 | 0.00 | 0.00 | 63 | 1014.5 |
| 20260905160535 | 31 | 148 | 6.4 | 14.5 | 0.00 | 0.00 | 0.00 | 64 | 1014.4 |
| 20260905160017 | 30 | 148 | 3.2 | 14.5 | 0.00 | 0.00 | 0.00 | 64 | 1014.5 |
| 20260905155553 | 30 | 132 | 4.8 | 19.3 | 0.00 | 0.00 | 0.00 | 65 | 1014.4 |
| 20260905155029 | 30 | 168 | 4.8 | 19.3 | 0.00 | 0.00 | 0.00 | 65 | 1014.4 |
| 20260905154502 | 30 | 137 | 3.2 | 12.9 | 0.00 | 0.00 | 0.00 | 67 | 1014.4 |
| 20260905154044 | 30 | 200 | 1.6 | 12.9 | 0.00 | 0.00 | 0.00 | 67 | 1014.4 |
| 20260905153521 | 30 | 225 | 3.2 | 17.7 | 0.00 | 0.00 | 0.00 | 68 | 1014.4 |
| 20260905153110 | 30 | 150 | 6.4 | 17.7 | 0.00 | 0.00 | 0.00 | 69 | 1014.5 |
| 20260905152536 | 30 | 139 | 8.0 | 14.5 | 0.00 | 0.00 | 0.00 | 70 | 1014.4 |
| 20260905152012 | 29 | 149 | 3.2 | 12.9 | 0.00 | 0.00 | 0.00 | 72 | 1014.4 |
| 20260905151552 | 29 | 152 | 3.2 | 12.9 | 0.00 | 0.00 | 0.00 | 73 | 1014.4 |
| 20260905151028 | 29 | 234 | 1.6 | 12.9 | 0.00 | 0.00 | 0.00 | 74 | 1014.3 |
| 20260905150505 | 28 | 207 | 3.2 | 14.5 | 0.00 | 0.00 | 0.00 | 74 | 1014.4 |
| 20260905150045 | 28 | 160 | 6.4 | 14.5 | 0.00 | 0.00 | 0.00 | 75 | 1014.5 |
| 20260905145524 | 28 | 144 | 4.8 | 12.9 | 0.00 | 0.00 | 0.00 | 76 | 1014.5 |
| 20260905145103 | 28 | 140 | 4.8 | 14.5 | 0.00 | 0.00 | 0.00 | 79 | 1014.5 |
| 20260905144538 | 28 | 140 | 3.2 | 14.5 | 0.00 | 0.00 | 0.00 | 80 | 1014.5 |
| 20260905144013 | 27 | 130 | 3.2 | 14.5 | 0.00 | 0.00 | 0.00 | 83 | 1014.6 |
| 20260905143555 | 27 | 254 | 1.6 | 6.4 | 0.00 | 0.00 | 0.00 | 84 | 1014.6 |
| 20260905143031 | 27 | 136 | 1.6 | 11.3 | 0.00 | 0.00 | 0.00 | 84 | 1014.6 |
| 20260905142507 | 27 | 246 | 1.6 | 4.8 | 0.00 | 0.00 | 0.00 | 86 | 1014.6 |
| 20260905142049 | 27 | 180 | 0.0 | 4.8 | 0.00 | 0.00 | 0.00 | 87 | 1014.6 |
| 20260905141526 | 26 | 180 | 0.0 | 6.4 | 0.00 | 0.00 | 0.00 | 89 | 1014.6 |
| 20260905141006 | 26 | 185 | 1.6 | 6.4 | 0.00 | 0.00 | 0.00 | 89 | 1014.5 |
| 20260905140546 | 26 | 185 | 0.0 | 11.3 | 0.00 | 0.00 | 0.00 | 90 | 1014.5 |
| 20260905140024 | 26 | 140 | 4.8 | 12.9 | 0.00 | 0.00 | 0.00 | 90 | 1014.5 |
| 20260905135502 | 26 | 151 | 3.2 | 14.5 | 0.00 | 0.00 | 0.00 | 91 | 1014.5 |